Home > Weather > Arctic Bay > Past weeks

Flag for Canada Past Weather in Arctic Bay, Nunavut, Canada — Yesterday and Last 2 Weeks

Now
45 °F

Sunny.


Feels Like: 37 °F
Forecast: 36 / 40 °F
Wind: 16 mph from Southwest

Location: Pond Inlet

Current Time: Jul 1, 2016 at 2:58:22 PM

Latest Report: Jul 1, 2016 at 2:00 PM


Visibility: 9 mi

Pressure: 29.99 "Hg

Humidity: 61%

Dew Point: 32 °F

Location of Arctic BayLocation

Past Weather in Arctic Bay — Graph

°F

Arctic Bay Temperature Yesterday

Maximum temperature yesterday: 55 °F (at 6:00 PM)
Minimum temperature yesterday: 37 °F (at 5:00 AM)
Average temperature yesterday: 47 °F

High & Low Weather Summary for the Past Weeks

 TemperatureHumidityPressure
High57 °F (Jun 29, 4:00 PM)100% (Jun 20, 4:00 AM)30.07 "Hg (Jun 20, 4:00 AM)
Low28 °F (Jun 20, 5:00 AM)46% (Jun 25, 1:56 PM)29.42 "Hg (Jun 18, 3:00 PM)
Average41 °F77%29.74 "Hg
* Reported Jun 16 1:00 PM — Jul 1 1:00 PM, Arctic Bay, Weather by CustomWeather, © 2016

Note: Actual official high and low records may vary slightly from our data, if they occured in-between our weather recording intervals... More about our weather records

Advertising

Arctic Bay Weather History for the Previous 24 Hours

Scroll right to see more
 ConditionsComfort  
Time TempWeatherWind HumidityBarometerVisibility
1:00 PM
Fri, Jul 1
45 °FSunny.13 mph57%29.99 "Hg9 mi
12:00 PM45 °FSunny.15 mph53%29.99 "Hg9 mi
11:00 AM45 °FPassing clouds.17 mph57%29.99 "Hg9 mi
10:00 AM43 °FPartly sunny.16 mph61%29.99 "Hg9 mi
9:00 AM41 °FOvercast.15 mph70%29.98 "Hg9 mi
8:00 AM43 °FScattered clouds.17 mph66%29.95 "Hg9 mi
7:00 AM41 °FPartly sunny.15 mph81%29.93 "Hg9 mi
6:00 AM43 °FBroken clouds.17 mph81%29.91 "Hg9 mi
5:00 AM41 °FMostly cloudy.16 mph100%29.90 "Hg9 mi
4:47 AM41 °FLow clouds.16 mph93%29.89 "Hg9 mi
4:01 AM45 °FMostly cloudy.13 mph87%29.88 "Hg9 mi
3:00 AM45 °FLight rain. Overcast.5 mph87%29.87 "Hg9 mi
2:00 AM46 °FMore clouds than sun.2 mph93%29.85 "Hg9 mi
1:00 AM46 °FLight rain. More clouds than sun.2 mph87%29.88 "Hg9 mi
12:00 AM46 °FLight rain. More clouds than sun.3 mph82%29.88 "Hg9 mi
11:00 PM
Thu, Jun 30
54 °FOvercast.2 mph58%29.88 "Hg9 mi
10:00 PM54 °FOvercast.2 mph54%29.89 "Hg9 mi
9:00 PM55 °FOvercast.2 mph55%29.91 "Hg9 mi
8:00 PM55 °FSunny.2 mph55%29.91 "Hg9 mi
7:00 PM55 °FPartly sunny.No wind55%29.92 "Hg40 mi
6:00 PM55 °FBroken clouds.2 mph55%29.93 "Hg40 mi
5:00 PM54 °FPartly sunny.No wind63%29.93 "Hg40 mi
4:00 PM52 °FBroken clouds.5 mph67%29.94 "Hg40 mi
3:00 PM52 °FBroken clouds.5 mph72%29.94 "Hg30 mi
2:00 PM48 °FPartly sunny.3 mph82%29.94 "Hg30 mi
Weather by CustomWeather, © 2016

See weather overviewHow to use our weather pages